<?xml version="1.0" encoding="UTF-8" standalone="no" ?>
<gpx xmlns="http://www.topografix.com/GPX/1/1" xmlns:xsi="http://www.w3.org/2001/XMLSchema-instance" xsi:schemaLocation="http://www.topografix.com/GPX/1/1 http://www.topografix.com/GPX/1/1/gpx.xsd" version="1.1" creator="VisuGPX - https://www.visugpx.com">
  <metadata>
    <name>Les Trois Cols</name>
    <desc><![CDATA[grp_trc:]]></desc>
  </metadata>
  <trk>
    <name><![CDATA[Les Trois Cols]]></name>
    <cmt><![CDATA[D. du Quartier Le Plan]]></cmt>
    <desc><![CDATA[comment ...]]></desc>
    <trkseg>
      <trkpt lat="44.29223" lon="5.61715">
        <ele>790</ele>
        <time>2022-02-20T16:32:49Z</time>
      </trkpt>
      <trkpt lat="44.29223" lon="5.61715">
        <ele>790</ele>
        <time>2022-02-20T16:32:49Z</time>
      </trkpt>
      <trkpt lat="44.29224" lon="5.61694">
        <ele>790</ele>
        <time>2022-02-20T16:32:49Z</time>
      </trkpt>
      <trkpt lat="44.29231" lon="5.61669">
        <ele>790</ele>
        <time>2022-02-20T16:32:49Z</time>
      </trkpt>
      <trkpt lat="44.29239" lon="5.61666">
        <ele>791</ele>
        <time>2022-02-20T16:32:49Z</time>
      </trkpt>
      <trkpt lat="44.29255" lon="5.61656">
        <ele>791</ele>
        <time>2022-02-20T16:32:49Z</time>
      </trkpt>
      <trkpt lat="44.29255" lon="5.61656">
        <ele>793</ele>
        <time>2022-02-20T16:32:49Z</time>
      </trkpt>
      <trkpt lat="44.29313" lon="5.61606">
        <ele>794</ele>
        <time>2022-02-20T16:32:49Z</time>
      </trkpt>
      <trkpt lat="44.29313" lon="5.61606">
        <ele>800</ele>
        <time>2022-02-20T16:32:49Z</time>
      </trkpt>
      <trkpt lat="44.29323" lon="5.61586">
        <ele>801</ele>
        <time>2022-02-20T16:32:49Z</time>
      </trkpt>
      <trkpt lat="44.29353" lon="5.61556">
        <ele>803</ele>
        <time>2022-02-20T16:32:49Z</time>
      </trkpt>
      <trkpt lat="44.29353" lon="5.61556">
        <ele>811</ele>
        <time>2022-02-20T16:32:49Z</time>
      </trkpt>
      <trkpt lat="44.29378" lon="5.61567">
        <ele>811</ele>
        <time>2022-02-20T16:32:49Z</time>
      </trkpt>
      <trkpt lat="44.29425" lon="5.61573">
        <ele>810</ele>
        <time>2022-02-20T16:32:49Z</time>
      </trkpt>
      <trkpt lat="44.2949" lon="5.61534">
        <ele>811</ele>
        <time>2022-02-20T16:32:49Z</time>
      </trkpt>
      <trkpt lat="44.29532" lon="5.61494">
        <ele>813</ele>
        <time>2022-02-20T16:32:49Z</time>
      </trkpt>
      <trkpt lat="44.29607" lon="5.61459">
        <ele>812</ele>
        <time>2022-02-20T16:32:49Z</time>
      </trkpt>
      <trkpt lat="44.29685" lon="5.6146">
        <ele>812</ele>
        <time>2022-02-20T16:32:49Z</time>
      </trkpt>
      <trkpt lat="44.29692" lon="5.61466">
        <ele>812</ele>
        <time>2022-02-20T16:32:49Z</time>
      </trkpt>
      <trkpt lat="44.29737" lon="5.61463">
        <ele>812</ele>
        <time>2022-02-20T16:32:49Z</time>
      </trkpt>
      <trkpt lat="44.2975" lon="5.61466">
        <ele>813</ele>
        <time>2022-02-20T16:32:49Z</time>
      </trkpt>
      <trkpt lat="44.29761" lon="5.61473">
        <ele>813</ele>
        <time>2022-02-20T16:32:49Z</time>
      </trkpt>
      <trkpt lat="44.29802" lon="5.6152">
        <ele>815</ele>
        <time>2022-02-20T16:32:49Z</time>
      </trkpt>
      <trkpt lat="44.29848" lon="5.61542">
        <ele>816</ele>
        <time>2022-02-20T16:32:49Z</time>
      </trkpt>
      <trkpt lat="44.29881" lon="5.61542">
        <ele>817</ele>
        <time>2022-02-20T16:32:49Z</time>
      </trkpt>
      <trkpt lat="44.29881" lon="5.61542">
        <ele>821</ele>
        <time>2022-02-20T16:32:49Z</time>
      </trkpt>
      <trkpt lat="44.29921" lon="5.61545">
        <ele>821</ele>
        <time>2022-02-20T16:32:49Z</time>
      </trkpt>
      <trkpt lat="44.3001" lon="5.61575">
        <ele>823</ele>
        <time>2022-02-20T16:32:49Z</time>
      </trkpt>
      <trkpt lat="44.30104" lon="5.61644">
        <ele>827</ele>
        <time>2022-02-20T16:32:49Z</time>
      </trkpt>
      <trkpt lat="44.30165" lon="5.61741">
        <ele>834</ele>
        <time>2022-02-20T16:32:49Z</time>
      </trkpt>
      <trkpt lat="44.30169" lon="5.61752">
        <ele>838</ele>
        <time>2022-02-20T16:32:49Z</time>
      </trkpt>
      <trkpt lat="44.30167" lon="5.61766">
        <ele>841</ele>
        <time>2022-02-20T16:32:49Z</time>
      </trkpt>
      <trkpt lat="44.30169" lon="5.61786">
        <ele>842</ele>
        <time>2022-02-20T16:32:49Z</time>
      </trkpt>
      <trkpt lat="44.30196" lon="5.61848">
        <ele>845</ele>
        <time>2022-02-20T16:32:49Z</time>
      </trkpt>
      <trkpt lat="44.30216" lon="5.61933">
        <ele>851</ele>
        <time>2022-02-20T16:32:49Z</time>
      </trkpt>
      <trkpt lat="44.3022" lon="5.61942">
        <ele>856</ele>
        <time>2022-02-20T16:32:49Z</time>
      </trkpt>
      <trkpt lat="44.30236" lon="5.62008">
        <ele>862</ele>
        <time>2022-02-20T16:32:49Z</time>
      </trkpt>
      <trkpt lat="44.30236" lon="5.62021">
        <ele>867</ele>
        <time>2022-02-20T16:32:49Z</time>
      </trkpt>
      <trkpt lat="44.30236" lon="5.62021">
        <ele>887</ele>
        <time>2022-02-20T16:32:49Z</time>
      </trkpt>
      <trkpt lat="44.30236" lon="5.62032">
        <ele>888</ele>
        <time>2022-02-20T16:32:49Z</time>
      </trkpt>
      <trkpt lat="44.30255" lon="5.6208">
        <ele>889</ele>
        <time>2022-02-20T16:32:49Z</time>
      </trkpt>
      <trkpt lat="44.3027" lon="5.62108">
        <ele>889</ele>
        <time>2022-02-20T16:32:49Z</time>
      </trkpt>
      <trkpt lat="44.30281" lon="5.62146">
        <ele>891</ele>
        <time>2022-02-20T16:32:49Z</time>
      </trkpt>
      <trkpt lat="44.30291" lon="5.62164">
        <ele>893</ele>
        <time>2022-02-20T16:32:49Z</time>
      </trkpt>
      <trkpt lat="44.30311" lon="5.62183">
        <ele>894</ele>
        <time>2022-02-20T16:32:49Z</time>
      </trkpt>
      <trkpt lat="44.30329" lon="5.62236">
        <ele>897</ele>
        <time>2022-02-20T16:32:49Z</time>
      </trkpt>
      <trkpt lat="44.30347" lon="5.62262">
        <ele>901</ele>
        <time>2022-02-20T16:32:49Z</time>
      </trkpt>
      <trkpt lat="44.30352" lon="5.62272">
        <ele>904</ele>
        <time>2022-02-20T16:32:49Z</time>
      </trkpt>
      <trkpt lat="44.30356" lon="5.62286">
        <ele>907</ele>
        <time>2022-02-20T16:32:49Z</time>
      </trkpt>
      <trkpt lat="44.30355" lon="5.62298">
        <ele>909</ele>
        <time>2022-02-20T16:32:49Z</time>
      </trkpt>
      <trkpt lat="44.30356" lon="5.6231">
        <ele>912</ele>
        <time>2022-02-20T16:32:49Z</time>
      </trkpt>
      <trkpt lat="44.30379" lon="5.62309">
        <ele>915</ele>
        <time>2022-02-20T16:32:49Z</time>
      </trkpt>
      <trkpt lat="44.304" lon="5.62334">
        <ele>918</ele>
        <time>2022-02-20T16:32:49Z</time>
      </trkpt>
      <trkpt lat="44.3041" lon="5.62352">
        <ele>921</ele>
        <time>2022-02-20T16:32:49Z</time>
      </trkpt>
      <trkpt lat="44.30417" lon="5.62355">
        <ele>924</ele>
        <time>2022-02-20T16:32:49Z</time>
      </trkpt>
      <trkpt lat="44.30423" lon="5.62347">
        <ele>925</ele>
        <time>2022-02-20T16:32:49Z</time>
      </trkpt>
      <trkpt lat="44.30422" lon="5.62334">
        <ele>927</ele>
        <time>2022-02-20T16:32:49Z</time>
      </trkpt>
      <trkpt lat="44.30425" lon="5.62323">
        <ele>928</ele>
        <time>2022-02-20T16:32:49Z</time>
      </trkpt>
      <trkpt lat="44.30443" lon="5.62324">
        <ele>930</ele>
        <time>2022-02-20T16:32:49Z</time>
      </trkpt>
      <trkpt lat="44.30456" lon="5.62305">
        <ele>931</ele>
        <time>2022-02-20T16:32:49Z</time>
      </trkpt>
      <trkpt lat="44.30481" lon="5.62253">
        <ele>935</ele>
        <time>2022-02-20T16:32:49Z</time>
      </trkpt>
      <trkpt lat="44.30489" lon="5.62248">
        <ele>938</ele>
        <time>2022-02-20T16:32:49Z</time>
      </trkpt>
      <trkpt lat="44.30522" lon="5.62249">
        <ele>942</ele>
        <time>2022-02-20T16:32:49Z</time>
      </trkpt>
      <trkpt lat="44.30531" lon="5.62252">
        <ele>945</ele>
        <time>2022-02-20T16:32:49Z</time>
      </trkpt>
      <trkpt lat="44.30557" lon="5.62272">
        <ele>947</ele>
        <time>2022-02-20T16:32:49Z</time>
      </trkpt>
      <trkpt lat="44.30573" lon="5.62275">
        <ele>949</ele>
        <time>2022-02-20T16:32:49Z</time>
      </trkpt>
      <trkpt lat="44.30594" lon="5.62298">
        <ele>951</ele>
        <time>2022-02-20T16:32:49Z</time>
      </trkpt>
      <trkpt lat="44.3061" lon="5.6231">
        <ele>951</ele>
        <time>2022-02-20T16:32:49Z</time>
      </trkpt>
      <trkpt lat="44.30622" lon="5.62328">
        <ele>950</ele>
        <time>2022-02-20T16:32:49Z</time>
      </trkpt>
      <trkpt lat="44.30631" lon="5.62331">
        <ele>950</ele>
        <time>2022-02-20T16:32:49Z</time>
      </trkpt>
      <trkpt lat="44.30631" lon="5.62331">
        <ele>946</ele>
        <time>2022-02-20T16:32:49Z</time>
      </trkpt>
      <trkpt lat="44.30727" lon="5.62341">
        <ele>945</ele>
        <time>2022-02-20T16:32:49Z</time>
      </trkpt>
      <trkpt lat="44.30791" lon="5.62374">
        <ele>941</ele>
        <time>2022-02-20T16:32:49Z</time>
      </trkpt>
      <trkpt lat="44.30816" lon="5.62372">
        <ele>938</ele>
        <time>2022-02-20T16:32:49Z</time>
      </trkpt>
      <trkpt lat="44.30824" lon="5.62368">
        <ele>936</ele>
        <time>2022-02-20T16:32:49Z</time>
      </trkpt>
      <trkpt lat="44.30838" lon="5.62353">
        <ele>934</ele>
        <time>2022-02-20T16:32:49Z</time>
      </trkpt>
      <trkpt lat="44.30844" lon="5.62343">
        <ele>933</ele>
        <time>2022-02-20T16:32:49Z</time>
      </trkpt>
      <trkpt lat="44.30847" lon="5.62331">
        <ele>932</ele>
        <time>2022-02-20T16:32:49Z</time>
      </trkpt>
      <trkpt lat="44.30879" lon="5.62292">
        <ele>930</ele>
        <time>2022-02-20T16:32:49Z</time>
      </trkpt>
      <trkpt lat="44.30902" lon="5.62287">
        <ele>928</ele>
        <time>2022-02-20T16:32:49Z</time>
      </trkpt>
      <trkpt lat="44.30917" lon="5.62292">
        <ele>926</ele>
        <time>2022-02-20T16:32:49Z</time>
      </trkpt>
      <trkpt lat="44.30938" lon="5.62282">
        <ele>923</ele>
        <time>2022-02-20T16:32:49Z</time>
      </trkpt>
      <trkpt lat="44.30998" lon="5.6223">
        <ele>918</ele>
        <time>2022-02-20T16:32:49Z</time>
      </trkpt>
      <trkpt lat="44.31005" lon="5.62228">
        <ele>915</ele>
        <time>2022-02-20T16:32:49Z</time>
      </trkpt>
      <trkpt lat="44.31049" lon="5.62248">
        <ele>912</ele>
        <time>2022-02-20T16:32:49Z</time>
      </trkpt>
      <trkpt lat="44.31059" lon="5.62249">
        <ele>909</ele>
        <time>2022-02-20T16:32:49Z</time>
      </trkpt>
      <trkpt lat="44.31059" lon="5.62249">
        <ele>897</ele>
        <time>2022-02-20T16:32:49Z</time>
      </trkpt>
      <trkpt lat="44.31067" lon="5.62246">
        <ele>897</ele>
        <time>2022-02-20T16:32:49Z</time>
      </trkpt>
      <trkpt lat="44.31089" lon="5.62231">
        <ele>897</ele>
        <time>2022-02-20T16:32:49Z</time>
      </trkpt>
      <trkpt lat="44.3112" lon="5.62218">
        <ele>896</ele>
        <time>2022-02-20T16:32:49Z</time>
      </trkpt>
      <trkpt lat="44.31127" lon="5.6221">
        <ele>895</ele>
        <time>2022-02-20T16:32:49Z</time>
      </trkpt>
      <trkpt lat="44.3115" lon="5.62198">
        <ele>894</ele>
        <time>2022-02-20T16:32:49Z</time>
      </trkpt>
      <trkpt lat="44.31159" lon="5.62197">
        <ele>894</ele>
        <time>2022-02-20T16:32:49Z</time>
      </trkpt>
      <trkpt lat="44.31174" lon="5.62206">
        <ele>893</ele>
        <time>2022-02-20T16:32:49Z</time>
      </trkpt>
      <trkpt lat="44.31213" lon="5.62244">
        <ele>893</ele>
        <time>2022-02-20T16:32:49Z</time>
      </trkpt>
      <trkpt lat="44.31268" lon="5.62261">
        <ele>893</ele>
        <time>2022-02-20T16:32:49Z</time>
      </trkpt>
      <trkpt lat="44.31274" lon="5.62266">
        <ele>894</ele>
        <time>2022-02-20T16:32:49Z</time>
      </trkpt>
      <trkpt lat="44.31295" lon="5.62295">
        <ele>894</ele>
        <time>2022-02-20T16:32:49Z</time>
      </trkpt>
      <trkpt lat="44.31333" lon="5.6233">
        <ele>894</ele>
        <time>2022-02-20T16:32:49Z</time>
      </trkpt>
      <trkpt lat="44.31339" lon="5.62338">
        <ele>894</ele>
        <time>2022-02-20T16:32:49Z</time>
      </trkpt>
      <trkpt lat="44.31342" lon="5.62349">
        <ele>892</ele>
        <time>2022-02-20T16:32:49Z</time>
      </trkpt>
      <trkpt lat="44.31331" lon="5.62416">
        <ele>892</ele>
        <time>2022-02-20T16:32:49Z</time>
      </trkpt>
      <trkpt lat="44.31331" lon="5.62428">
        <ele>891</ele>
        <time>2022-02-20T16:32:49Z</time>
      </trkpt>
      <trkpt lat="44.3134" lon="5.62458">
        <ele>891</ele>
        <time>2022-02-20T16:32:49Z</time>
      </trkpt>
      <trkpt lat="44.31354" lon="5.62478">
        <ele>891</ele>
        <time>2022-02-20T16:32:49Z</time>
      </trkpt>
      <trkpt lat="44.31461" lon="5.62553">
        <ele>890</ele>
        <time>2022-02-20T16:32:49Z</time>
      </trkpt>
      <trkpt lat="44.31465" lon="5.62565">
        <ele>890</ele>
        <time>2022-02-20T16:32:49Z</time>
      </trkpt>
      <trkpt lat="44.31465" lon="5.62565">
        <ele>889</ele>
        <time>2022-02-20T16:32:49Z</time>
      </trkpt>
      <trkpt lat="44.31478" lon="5.6259">
        <ele>889</ele>
        <time>2022-02-20T16:32:49Z</time>
      </trkpt>
      <trkpt lat="44.31486" lon="5.62595">
        <ele>890</ele>
        <time>2022-02-20T16:32:49Z</time>
      </trkpt>
      <trkpt lat="44.31507" lon="5.62614">
        <ele>891</ele>
        <time>2022-02-20T16:32:49Z</time>
      </trkpt>
      <trkpt lat="44.31525" lon="5.62625">
        <ele>891</ele>
        <time>2022-02-20T16:32:49Z</time>
      </trkpt>
      <trkpt lat="44.3155" lon="5.62649">
        <ele>891</ele>
        <time>2022-02-20T16:32:49Z</time>
      </trkpt>
      <trkpt lat="44.31554" lon="5.6266">
        <ele>890</ele>
        <time>2022-02-20T16:32:49Z</time>
      </trkpt>
      <trkpt lat="44.31568" lon="5.62742">
        <ele>890</ele>
        <time>2022-02-20T16:32:49Z</time>
      </trkpt>
      <trkpt lat="44.31588" lon="5.62766">
        <ele>891</ele>
        <time>2022-02-20T16:32:49Z</time>
      </trkpt>
      <trkpt lat="44.31608" lon="5.6278">
        <ele>892</ele>
        <time>2022-02-20T16:32:49Z</time>
      </trkpt>
      <trkpt lat="44.3162" lon="5.62785">
        <ele>893</ele>
        <time>2022-02-20T16:32:49Z</time>
      </trkpt>
      <trkpt lat="44.31642" lon="5.6278">
        <ele>894</ele>
        <time>2022-02-20T16:32:49Z</time>
      </trkpt>
      <trkpt lat="44.31651" lon="5.62784">
        <ele>895</ele>
        <time>2022-02-20T16:32:49Z</time>
      </trkpt>
      <trkpt lat="44.31671" lon="5.62842">
        <ele>896</ele>
        <time>2022-02-20T16:32:49Z</time>
      </trkpt>
      <trkpt lat="44.31683" lon="5.62842">
        <ele>897</ele>
        <time>2022-02-20T16:32:49Z</time>
      </trkpt>
      <trkpt lat="44.31698" lon="5.62834">
        <ele>897</ele>
        <time>2022-02-20T16:32:49Z</time>
      </trkpt>
      <trkpt lat="44.31702" lon="5.6282">
        <ele>897</ele>
        <time>2022-02-20T16:32:49Z</time>
      </trkpt>
      <trkpt lat="44.31702" lon="5.6282">
        <ele>898</ele>
        <time>2022-02-20T16:32:49Z</time>
      </trkpt>
      <trkpt lat="44.31698" lon="5.62834">
        <ele>898</ele>
        <time>2022-02-20T16:32:49Z</time>
      </trkpt>
      <trkpt lat="44.31683" lon="5.62842">
        <ele>898</ele>
        <time>2022-02-20T16:32:49Z</time>
      </trkpt>
      <trkpt lat="44.31675" lon="5.62844">
        <ele>898</ele>
        <time>2022-02-20T16:32:49Z</time>
      </trkpt>
      <trkpt lat="44.31668" lon="5.62837">
        <ele>898</ele>
        <time>2022-02-20T16:32:49Z</time>
      </trkpt>
      <trkpt lat="44.31654" lon="5.62789">
        <ele>899</ele>
        <time>2022-02-20T16:32:49Z</time>
      </trkpt>
      <trkpt lat="44.31648" lon="5.62782">
        <ele>899</ele>
        <time>2022-02-20T16:32:49Z</time>
      </trkpt>
      <trkpt lat="44.31637" lon="5.62781">
        <ele>899</ele>
        <time>2022-02-20T16:32:49Z</time>
      </trkpt>
      <trkpt lat="44.31626" lon="5.62785">
        <ele>899</ele>
        <time>2022-02-20T16:32:49Z</time>
      </trkpt>
      <trkpt lat="44.31614" lon="5.62784">
        <ele>898</ele>
        <time>2022-02-20T16:32:49Z</time>
      </trkpt>
      <trkpt lat="44.31588" lon="5.62766">
        <ele>898</ele>
        <time>2022-02-20T16:32:49Z</time>
      </trkpt>
      <trkpt lat="44.31584" lon="5.62757">
        <ele>897</ele>
        <time>2022-02-20T16:32:49Z</time>
      </trkpt>
      <trkpt lat="44.31579" lon="5.62734">
        <ele>896</ele>
        <time>2022-02-20T16:32:49Z</time>
      </trkpt>
      <trkpt lat="44.31578" lon="5.62714">
        <ele>896</ele>
        <time>2022-02-20T16:32:49Z</time>
      </trkpt>
      <trkpt lat="44.31582" lon="5.62698">
        <ele>896</ele>
        <time>2022-02-20T16:32:49Z</time>
      </trkpt>
      <trkpt lat="44.31582" lon="5.62698">
        <ele>895</ele>
        <time>2022-02-20T16:32:49Z</time>
      </trkpt>
      <trkpt lat="44.31586" lon="5.6268">
        <ele>895</ele>
        <time>2022-02-20T16:32:49Z</time>
      </trkpt>
      <trkpt lat="44.31586" lon="5.62657">
        <ele>895</ele>
        <time>2022-02-20T16:32:49Z</time>
      </trkpt>
      <trkpt lat="44.31582" lon="5.62646">
        <ele>895</ele>
        <time>2022-02-20T16:32:49Z</time>
      </trkpt>
      <trkpt lat="44.31531" lon="5.62619">
        <ele>894</ele>
        <time>2022-02-20T16:32:49Z</time>
      </trkpt>
      <trkpt lat="44.31516" lon="5.62619">
        <ele>894</ele>
        <time>2022-02-20T16:32:49Z</time>
      </trkpt>
      <trkpt lat="44.31496" lon="5.62606">
        <ele>894</ele>
        <time>2022-02-20T16:32:49Z</time>
      </trkpt>
      <trkpt lat="44.31486" lon="5.62595">
        <ele>894</ele>
        <time>2022-02-20T16:32:49Z</time>
      </trkpt>
      <trkpt lat="44.31478" lon="5.6259">
        <ele>893</ele>
        <time>2022-02-20T16:32:49Z</time>
      </trkpt>
      <trkpt lat="44.31461" lon="5.62553">
        <ele>893</ele>
        <time>2022-02-20T16:32:49Z</time>
      </trkpt>
      <trkpt lat="44.31386" lon="5.62494">
        <ele>891</ele>
        <time>2022-02-20T16:32:49Z</time>
      </trkpt>
      <trkpt lat="44.31354" lon="5.62478">
        <ele>891</ele>
        <time>2022-02-20T16:32:49Z</time>
      </trkpt>
      <trkpt lat="44.31354" lon="5.62478">
        <ele>889</ele>
        <time>2022-02-20T16:32:49Z</time>
      </trkpt>
      <trkpt lat="44.3134" lon="5.62458">
        <ele>889</ele>
        <time>2022-02-20T16:32:49Z</time>
      </trkpt>
      <trkpt lat="44.31332" lon="5.62436">
        <ele>890</ele>
        <time>2022-02-20T16:32:49Z</time>
      </trkpt>
      <trkpt lat="44.31331" lon="5.62416">
        <ele>890</ele>
        <time>2022-02-20T16:32:49Z</time>
      </trkpt>
      <trkpt lat="44.31342" lon="5.62357">
        <ele>890</ele>
        <time>2022-02-20T16:32:49Z</time>
      </trkpt>
      <trkpt lat="44.31341" lon="5.62342">
        <ele>891</ele>
        <time>2022-02-20T16:32:49Z</time>
      </trkpt>
      <trkpt lat="44.31333" lon="5.6233">
        <ele>891</ele>
        <time>2022-02-20T16:32:49Z</time>
      </trkpt>
      <trkpt lat="44.31287" lon="5.62284">
        <ele>892</ele>
        <time>2022-02-20T16:32:49Z</time>
      </trkpt>
      <trkpt lat="44.31274" lon="5.62266">
        <ele>893</ele>
        <time>2022-02-20T16:32:49Z</time>
      </trkpt>
      <trkpt lat="44.31268" lon="5.62261">
        <ele>893</ele>
        <time>2022-02-20T16:32:49Z</time>
      </trkpt>
      <trkpt lat="44.31213" lon="5.62244">
        <ele>893</ele>
        <time>2022-02-20T16:32:49Z</time>
      </trkpt>
      <trkpt lat="44.3117" lon="5.62202">
        <ele>892</ele>
        <time>2022-02-20T16:32:49Z</time>
      </trkpt>
      <trkpt lat="44.31163" lon="5.62198">
        <ele>892</ele>
        <time>2022-02-20T16:32:49Z</time>
      </trkpt>
      <trkpt lat="44.31155" lon="5.62196">
        <ele>892</ele>
        <time>2022-02-20T16:32:49Z</time>
      </trkpt>
      <trkpt lat="44.31127" lon="5.6221">
        <ele>892</ele>
        <time>2022-02-20T16:32:49Z</time>
      </trkpt>
      <trkpt lat="44.3112" lon="5.62218">
        <ele>891</ele>
        <time>2022-02-20T16:32:49Z</time>
      </trkpt>
      <trkpt lat="44.31101" lon="5.62227">
        <ele>891</ele>
        <time>2022-02-20T16:32:49Z</time>
      </trkpt>
      <trkpt lat="44.31091" lon="5.62204">
        <ele>892</ele>
        <time>2022-02-20T16:32:49Z</time>
      </trkpt>
      <trkpt lat="44.31081" lon="5.62166">
        <ele>894</ele>
        <time>2022-02-20T16:32:49Z</time>
      </trkpt>
      <trkpt lat="44.31052" lon="5.62103">
        <ele>899</ele>
        <time>2022-02-20T16:32:49Z</time>
      </trkpt>
      <trkpt lat="44.3105" lon="5.62083">
        <ele>902</ele>
        <time>2022-02-20T16:32:49Z</time>
      </trkpt>
      <trkpt lat="44.31055" lon="5.62071">
        <ele>904</ele>
        <time>2022-02-20T16:32:49Z</time>
      </trkpt>
      <trkpt lat="44.3107" lon="5.6205">
        <ele>906</ele>
        <time>2022-02-20T16:32:49Z</time>
      </trkpt>
      <trkpt lat="44.31087" lon="5.62037">
        <ele>908</ele>
        <time>2022-02-20T16:32:49Z</time>
      </trkpt>
      <trkpt lat="44.31087" lon="5.62037">
        <ele>916</ele>
        <time>2022-02-20T16:32:49Z</time>
      </trkpt>
      <trkpt lat="44.311" lon="5.62029">
        <ele>916</ele>
        <time>2022-02-20T16:32:49Z</time>
      </trkpt>
      <trkpt lat="44.31109" lon="5.62018">
        <ele>916</ele>
        <time>2022-02-20T16:32:49Z</time>
      </trkpt>
      <trkpt lat="44.31119" lon="5.61994">
        <ele>917</ele>
        <time>2022-02-20T16:32:49Z</time>
      </trkpt>
      <trkpt lat="44.31121" lon="5.6198">
        <ele>918</ele>
        <time>2022-02-20T16:32:49Z</time>
      </trkpt>
      <trkpt lat="44.31128" lon="5.61896">
        <ele>921</ele>
        <time>2022-02-20T16:32:49Z</time>
      </trkpt>
      <trkpt lat="44.3114" lon="5.61869">
        <ele>923</ele>
        <time>2022-02-20T16:32:49Z</time>
      </trkpt>
      <trkpt lat="44.31141" lon="5.61824">
        <ele>927</ele>
        <time>2022-02-20T16:32:49Z</time>
      </trkpt>
      <trkpt lat="44.31138" lon="5.61797">
        <ele>932</ele>
        <time>2022-02-20T16:32:49Z</time>
      </trkpt>
      <trkpt lat="44.3114" lon="5.61785">
        <ele>936</ele>
        <time>2022-02-20T16:32:49Z</time>
      </trkpt>
      <trkpt lat="44.31139" lon="5.61768">
        <ele>940</ele>
        <time>2022-02-20T16:32:49Z</time>
      </trkpt>
      <trkpt lat="44.31147" lon="5.61744">
        <ele>944</ele>
        <time>2022-02-20T16:32:49Z</time>
      </trkpt>
      <trkpt lat="44.31147" lon="5.61682">
        <ele>951</ele>
        <time>2022-02-20T16:32:49Z</time>
      </trkpt>
      <trkpt lat="44.31145" lon="5.61671">
        <ele>956</ele>
        <time>2022-02-20T16:32:49Z</time>
      </trkpt>
      <trkpt lat="44.31141" lon="5.61661">
        <ele>960</ele>
        <time>2022-02-20T16:32:49Z</time>
      </trkpt>
      <trkpt lat="44.31137" lon="5.61638">
        <ele>964</ele>
        <time>2022-02-20T16:32:49Z</time>
      </trkpt>
      <trkpt lat="44.31123" lon="5.61606">
        <ele>967</ele>
        <time>2022-02-20T16:32:49Z</time>
      </trkpt>
      <trkpt lat="44.31116" lon="5.61595">
        <ele>970</ele>
        <time>2022-02-20T16:32:49Z</time>
      </trkpt>
      <trkpt lat="44.31116" lon="5.61595">
        <ele>986</ele>
        <time>2022-02-20T16:32:49Z</time>
      </trkpt>
      <trkpt lat="44.31085" lon="5.61566">
        <ele>988</ele>
        <time>2022-02-20T16:32:49Z</time>
      </trkpt>
      <trkpt lat="44.3102" lon="5.61473">
        <ele>992</ele>
        <time>2022-02-20T16:32:49Z</time>
      </trkpt>
      <trkpt lat="44.30834" lon="5.61248">
        <ele>1005</ele>
        <time>2022-02-20T16:32:49Z</time>
      </trkpt>
      <trkpt lat="44.30785" lon="5.61221">
        <ele>1013</ele>
        <time>2022-02-20T16:32:49Z</time>
      </trkpt>
      <trkpt lat="44.30772" lon="5.61203">
        <ele>1017</ele>
        <time>2022-02-20T16:32:49Z</time>
      </trkpt>
      <trkpt lat="44.30735" lon="5.61117">
        <ele>1016</ele>
        <time>2022-02-20T16:32:49Z</time>
      </trkpt>
      <trkpt lat="44.30718" lon="5.61089">
        <ele>1009</ele>
        <time>2022-02-20T16:32:49Z</time>
      </trkpt>
      <trkpt lat="44.30711" lon="5.61083">
        <ele>1008</ele>
        <time>2022-02-20T16:32:49Z</time>
      </trkpt>
      <trkpt lat="44.30711" lon="5.61083">
        <ele>1007</ele>
        <time>2022-02-20T16:32:49Z</time>
      </trkpt>
      <trkpt lat="44.30701" lon="5.61081">
        <ele>1007</ele>
        <time>2022-02-20T16:32:49Z</time>
      </trkpt>
      <trkpt lat="44.30687" lon="5.6107">
        <ele>1007</ele>
        <time>2022-02-20T16:32:49Z</time>
      </trkpt>
      <trkpt lat="44.30674" lon="5.6105">
        <ele>1006</ele>
        <time>2022-02-20T16:32:49Z</time>
      </trkpt>
      <trkpt lat="44.30667" lon="5.61036">
        <ele>1005</ele>
        <time>2022-02-20T16:32:49Z</time>
      </trkpt>
      <trkpt lat="44.30655" lon="5.61021">
        <ele>1004</ele>
        <time>2022-02-20T16:32:49Z</time>
      </trkpt>
      <trkpt lat="44.30651" lon="5.61012">
        <ele>1004</ele>
        <time>2022-02-20T16:32:49Z</time>
      </trkpt>
      <trkpt lat="44.3065" lon="5.60997">
        <ele>1003</ele>
        <time>2022-02-20T16:32:49Z</time>
      </trkpt>
      <trkpt lat="44.30639" lon="5.60959">
        <ele>1001</ele>
        <time>2022-02-20T16:32:49Z</time>
      </trkpt>
      <trkpt lat="44.30626" lon="5.60929">
        <ele>1000</ele>
        <time>2022-02-20T16:32:49Z</time>
      </trkpt>
      <trkpt lat="44.30618" lon="5.60933">
        <ele>998</ele>
        <time>2022-02-20T16:32:49Z</time>
      </trkpt>
      <trkpt lat="44.30611" lon="5.60935">
        <ele>997</ele>
        <time>2022-02-20T16:32:49Z</time>
      </trkpt>
      <trkpt lat="44.30584" lon="5.60836">
        <ele>996</ele>
        <time>2022-02-20T16:32:49Z</time>
      </trkpt>
      <trkpt lat="44.30566" lon="5.60799">
        <ele>996</ele>
        <time>2022-02-20T16:32:49Z</time>
      </trkpt>
      <trkpt lat="44.30556" lon="5.60761">
        <ele>995</ele>
        <time>2022-02-20T16:32:49Z</time>
      </trkpt>
      <trkpt lat="44.3055" lon="5.60752">
        <ele>995</ele>
        <time>2022-02-20T16:32:49Z</time>
      </trkpt>
      <trkpt lat="44.30547" lon="5.60766">
        <ele>994</ele>
        <time>2022-02-20T16:32:49Z</time>
      </trkpt>
      <trkpt lat="44.30542" lon="5.6078">
        <ele>994</ele>
        <time>2022-02-20T16:32:49Z</time>
      </trkpt>
      <trkpt lat="44.30539" lon="5.60809">
        <ele>993</ele>
        <time>2022-02-20T16:32:49Z</time>
      </trkpt>
      <trkpt lat="44.30546" lon="5.60865">
        <ele>991</ele>
        <time>2022-02-20T16:32:49Z</time>
      </trkpt>
      <trkpt lat="44.30537" lon="5.60869">
        <ele>988</ele>
        <time>2022-02-20T16:32:49Z</time>
      </trkpt>
      <trkpt lat="44.3052" lon="5.6084">
        <ele>986</ele>
        <time>2022-02-20T16:32:49Z</time>
      </trkpt>
      <trkpt lat="44.3051" lon="5.6083">
        <ele>985</ele>
        <time>2022-02-20T16:32:49Z</time>
      </trkpt>
      <trkpt lat="44.30502" lon="5.60829">
        <ele>983</ele>
        <time>2022-02-20T16:32:49Z</time>
      </trkpt>
      <trkpt lat="44.30493" lon="5.60833">
        <ele>982</ele>
        <time>2022-02-20T16:32:49Z</time>
      </trkpt>
      <trkpt lat="44.30486" lon="5.60844">
        <ele>980</ele>
        <time>2022-02-20T16:32:49Z</time>
      </trkpt>
      <trkpt lat="44.30469" lon="5.60885">
        <ele>976</ele>
        <time>2022-02-20T16:32:49Z</time>
      </trkpt>
      <trkpt lat="44.30437" lon="5.60932">
        <ele>969</ele>
        <time>2022-02-20T16:32:49Z</time>
      </trkpt>
      <trkpt lat="44.30426" lon="5.60958">
        <ele>963</ele>
        <time>2022-02-20T16:32:49Z</time>
      </trkpt>
      <trkpt lat="44.30426" lon="5.60969">
        <ele>957</ele>
        <time>2022-02-20T16:32:49Z</time>
      </trkpt>
      <trkpt lat="44.30436" lon="5.60964">
        <ele>953</ele>
        <time>2022-02-20T16:32:49Z</time>
      </trkpt>
      <trkpt lat="44.30459" lon="5.60943">
        <ele>950</ele>
        <time>2022-02-20T16:32:49Z</time>
      </trkpt>
      <trkpt lat="44.30466" lon="5.60946">
        <ele>948</ele>
        <time>2022-02-20T16:32:49Z</time>
      </trkpt>
      <trkpt lat="44.30458" lon="5.60959">
        <ele>946</ele>
        <time>2022-02-20T16:32:49Z</time>
      </trkpt>
      <trkpt lat="44.30458" lon="5.60959">
        <ele>933</ele>
        <time>2022-02-20T16:32:49Z</time>
      </trkpt>
      <trkpt lat="44.30436" lon="5.61027">
        <ele>930</ele>
        <time>2022-02-20T16:32:49Z</time>
      </trkpt>
      <trkpt lat="44.30428" lon="5.61036">
        <ele>928</ele>
        <time>2022-02-20T16:32:49Z</time>
      </trkpt>
      <trkpt lat="44.3042" lon="5.61041">
        <ele>926</ele>
        <time>2022-02-20T16:32:49Z</time>
      </trkpt>
      <trkpt lat="44.30414" lon="5.61047">
        <ele>924</ele>
        <time>2022-02-20T16:32:49Z</time>
      </trkpt>
      <trkpt lat="44.30414" lon="5.61057">
        <ele>923</ele>
        <time>2022-02-20T16:32:49Z</time>
      </trkpt>
      <trkpt lat="44.3043" lon="5.61085">
        <ele>920</ele>
        <time>2022-02-20T16:32:49Z</time>
      </trkpt>
      <trkpt lat="44.30433" lon="5.61099">
        <ele>918</ele>
        <time>2022-02-20T16:32:49Z</time>
      </trkpt>
      <trkpt lat="44.3043" lon="5.61149">
        <ele>914</ele>
        <time>2022-02-20T16:32:49Z</time>
      </trkpt>
      <trkpt lat="44.3042" lon="5.61201">
        <ele>909</ele>
        <time>2022-02-20T16:32:49Z</time>
      </trkpt>
      <trkpt lat="44.30399" lon="5.61264">
        <ele>903</ele>
        <time>2022-02-20T16:32:49Z</time>
      </trkpt>
      <trkpt lat="44.3032" lon="5.61393">
        <ele>889</ele>
        <time>2022-02-20T16:32:49Z</time>
      </trkpt>
      <trkpt lat="44.30289" lon="5.61409">
        <ele>879</ele>
        <time>2022-02-20T16:32:49Z</time>
      </trkpt>
      <trkpt lat="44.3028" lon="5.6142">
        <ele>873</ele>
        <time>2022-02-20T16:32:49Z</time>
      </trkpt>
      <trkpt lat="44.30262" lon="5.6143">
        <ele>868</ele>
        <time>2022-02-20T16:32:49Z</time>
      </trkpt>
      <trkpt lat="44.30237" lon="5.61438">
        <ele>864</ele>
        <time>2022-02-20T16:32:49Z</time>
      </trkpt>
      <trkpt lat="44.30226" lon="5.61448">
        <ele>861</ele>
        <time>2022-02-20T16:32:49Z</time>
      </trkpt>
      <trkpt lat="44.30226" lon="5.61448">
        <ele>848</ele>
        <time>2022-02-20T16:32:49Z</time>
      </trkpt>
      <trkpt lat="44.30212" lon="5.61457">
        <ele>848</ele>
        <time>2022-02-20T16:32:49Z</time>
      </trkpt>
      <trkpt lat="44.30189" lon="5.6148">
        <ele>847</ele>
        <time>2022-02-20T16:32:49Z</time>
      </trkpt>
      <trkpt lat="44.30162" lon="5.61496">
        <ele>846</ele>
        <time>2022-02-20T16:32:49Z</time>
      </trkpt>
      <trkpt lat="44.30133" lon="5.61503">
        <ele>844</ele>
        <time>2022-02-20T16:32:49Z</time>
      </trkpt>
      <trkpt lat="44.30121" lon="5.6151">
        <ele>843</ele>
        <time>2022-02-20T16:32:49Z</time>
      </trkpt>
      <trkpt lat="44.30101" lon="5.61533">
        <ele>842</ele>
        <time>2022-02-20T16:32:49Z</time>
      </trkpt>
      <trkpt lat="44.30093" lon="5.61536">
        <ele>840</ele>
        <time>2022-02-20T16:32:49Z</time>
      </trkpt>
      <trkpt lat="44.30051" lon="5.61528">
        <ele>838</ele>
        <time>2022-02-20T16:32:49Z</time>
      </trkpt>
      <trkpt lat="44.3004" lon="5.61533">
        <ele>836</ele>
        <time>2022-02-20T16:32:49Z</time>
      </trkpt>
      <trkpt lat="44.30021" lon="5.61553">
        <ele>835</ele>
        <time>2022-02-20T16:32:49Z</time>
      </trkpt>
      <trkpt lat="44.30016" lon="5.61563">
        <ele>833</ele>
        <time>2022-02-20T16:32:49Z</time>
      </trkpt>
      <trkpt lat="44.30008" lon="5.61571">
        <ele>832</ele>
        <time>2022-02-20T16:32:49Z</time>
      </trkpt>
      <trkpt lat="44.29998" lon="5.61572">
        <ele>831</ele>
        <time>2022-02-20T16:32:49Z</time>
      </trkpt>
      <trkpt lat="44.29911" lon="5.61542">
        <ele>829</ele>
        <time>2022-02-20T16:32:49Z</time>
      </trkpt>
      <trkpt lat="44.29871" lon="5.61542">
        <ele>827</ele>
        <time>2022-02-20T16:32:49Z</time>
      </trkpt>
      <trkpt lat="44.29871" lon="5.61542">
        <ele>821</ele>
        <time>2022-02-20T16:32:49Z</time>
      </trkpt>
      <trkpt lat="44.29848" lon="5.61542">
        <ele>821</ele>
        <time>2022-02-20T16:32:49Z</time>
      </trkpt>
      <trkpt lat="44.29802" lon="5.6152">
        <ele>821</ele>
        <time>2022-02-20T16:32:49Z</time>
      </trkpt>
      <trkpt lat="44.2975" lon="5.61466">
        <ele>819</ele>
        <time>2022-02-20T16:32:49Z</time>
      </trkpt>
      <trkpt lat="44.29729" lon="5.61462">
        <ele>818</ele>
        <time>2022-02-20T16:32:49Z</time>
      </trkpt>
      <trkpt lat="44.29697" lon="5.61466">
        <ele>817</ele>
        <time>2022-02-20T16:32:49Z</time>
      </trkpt>
      <trkpt lat="44.29685" lon="5.6146">
        <ele>816</ele>
        <time>2022-02-20T16:32:49Z</time>
      </trkpt>
      <trkpt lat="44.29614" lon="5.61457">
        <ele>814</ele>
        <time>2022-02-20T16:32:49Z</time>
      </trkpt>
      <trkpt lat="44.29528" lon="5.61498">
        <ele>816</ele>
        <time>2022-02-20T16:32:49Z</time>
      </trkpt>
      <trkpt lat="44.2949" lon="5.61534">
        <ele>815</ele>
        <time>2022-02-20T16:32:49Z</time>
      </trkpt>
      <trkpt lat="44.29425" lon="5.61573">
        <ele>812</ele>
        <time>2022-02-20T16:32:49Z</time>
      </trkpt>
      <trkpt lat="44.29371" lon="5.61565">
        <ele>812</ele>
        <time>2022-02-20T16:32:49Z</time>
      </trkpt>
      <trkpt lat="44.29353" lon="5.61556">
        <ele>812</ele>
        <time>2022-02-20T16:32:49Z</time>
      </trkpt>
      <trkpt lat="44.29347" lon="5.61565">
        <ele>811</ele>
        <time>2022-02-20T16:32:49Z</time>
      </trkpt>
      <trkpt lat="44.29323" lon="5.61586">
        <ele>810</ele>
        <time>2022-02-20T16:32:49Z</time>
      </trkpt>
      <trkpt lat="44.29313" lon="5.61606">
        <ele>808</ele>
        <time>2022-02-20T16:32:49Z</time>
      </trkpt>
      <trkpt lat="44.29239" lon="5.61666">
        <ele>804</ele>
        <time>2022-02-20T16:32:49Z</time>
      </trkpt>
      <trkpt lat="44.29231" lon="5.61669">
        <ele>801</ele>
        <time>2022-02-20T16:32:49Z</time>
      </trkpt>
      <trkpt lat="44.29221" lon="5.61709">
        <ele>799</ele>
        <time>2022-02-20T16:32:49Z</time>
      </trkpt>
    </trkseg>
  </trk>
</gpx>